TJS-9

Last updated on Thu Sep 10 2026 00:03:00 GMT+0000 (Coordinated Universal Time)

1 50574U 21135A 26252.54146145 -.00000320 00000+0 00000+0 0 9994 2 50574 0.0097 210.5491 0004843 131.5945 338.6007 1.00271662 17277
UTC large
Height (km)
Speed (km/s)
/
Latitude / Longitude
Inclination (degrees)
Orbital Period (minutes)
Azimuth
Elevation
Range (km)
Doppler Factor

Next 0 passes for location: London (51.5072 / 0.1276)

No passes found over London.
TJS-9